Powrót do katalogu

DMSP 5D-2 F11 DEB

AktywnySSO
NORAD 29071·DEBRIS·🇺🇸 United States

Wystrzelony Nov 28, 1991 z Vandenberg Space Force Base

Loading…

Następne Przeloty (najbliższe 24 godziny)

TLE

ŚwieżeSource: Space-Track

Epoka: Sep 12, 2026, 10:54 UTC

1 29071U 91082BS  26255.45446228  .00002944  00000-0  95482-3 0  9994
2 29071  98.9418 332.1134 0068926 290.2881  69.0906 14.38392137144200

Śledź DMSP 5D-2 F11 DEB w czasie rzeczywistym z AllMySat

Download on the App Store